Preview of NWS' New Version of Forecast
This preview is not operational and should not be used for support decisions.

Regional Weather Roundup (RWR)

Issued by National Weather Service (NWS)

                            
000
ASUS44 KMEG 260010
RWRTN 
TENNESSEE HOURLY STATE WEATHER ROUNDUP
NATIONAL WEATHER SERVICE MEMPHIS TN
700 PM CDT SUN AUG 25 2019

TNZ002-004-019-021-049-052-054-088>092-260100-
WEST TENNESSEE
  
CITY           SKY/WX    TMP DP  RH WIND       PRES   REMARKS
MEMPHIS INTL   CLOUDY    81  76  84 SE6       29.86F                  
NWS MEMPHIS      N/A     79 N/A N/A MISG        N/A                   
JACKSON        MOCLDY    79  76  90 NW6       29.90R                  
DYERSBURG      MOCLDY    75  74  96 E6        29.89S                  
SOMERVILLE     CLOUDY    81  75  83 CALM      29.87R                  
COVINGTON      CLOUDY    77  75  94 E3        29.87R                  
UNION CITY     PTCLDY    75  73  94 E5        29.88F                  
BOLIVAR        MOCLDY    81  75  83 E3        29.87S                  
PARIS          MOCLDY    73  73 100 E8        29.89F                  
HUNTINGDON     CLOUDY    72  70  94 SE5       29.90F FOG              
LEXINGTON      CLOUDY    75  75 100 CALM      29.90F                  
SELMER         CLOUDY    73  72  94 SE14      29.91R FOG              
SAVANNAH       FOG       73  73 100 S8        29.93R VSB 3/4          
$$

TNZ008-025-027-028-033-062-065-066-260100-
NORTH MIDDLE TENNESSEE
  
CITY           SKY/WX    TMP DP  RH WIND       PRES   REMARKS
NASHVILLE      LGT RAIN  76  72  87 S5        29.96S                  
DICKSON        CLOUDY    73  73 100 S6        29.95R FOG              
PORTLAND       CLOUDY    73  73 100 SE5       29.96R                  
CLARKSVILLE    LGT RAIN  72  71  97 SE3       29.94R                  
LEBANON        CLOUDY    75  72  88 SW6       29.95R FOG              
SMYRNA         CLOUDY    75  73  93 SE5       29.97S                  
MURFREESBORO   CLOUDY    77  70  78 S8        29.95R                  
COOKEVILLE     MOCLDY    73  68  83 SE8       29.99F                  
LIVINGSTON     CLOUDY    73  66  78 S7        30.00S                  
GALLATIN       CLOUDY    75  73  94 CALM      29.98R                  
CROSSVILLE     MOCLDY    70  65  84 CALM      30.06S                  
ROCKWOOD       CLOUDY    72  70  94 CALM      30.04S                  
$$

TNZ061-075-076-078-094-096-097-260100-
SOUTH MIDDLE TENNESSEE
  
CITY           SKY/WX    TMP DP  RH WIND       PRES   REMARKS
LAWRENCEBURG   MOCLDY    72  70  94 SE9       29.96S FOG              
LEWISBURG      CLOUDY    75  70  83 S8        29.96R                  
FAYETTEVILLE   CLOUDY    73  70  88 S6        29.98S                  
TULLAHOMA      CLOUDY    73  68  83 SE8       29.99R                  
WINCHESTER     CLOUDY    73  66  78 SE7       29.99S                  
MCMINNVILLE    MOCLDY    73  66  78 SE5       30.00R                  
COLUMBIA       CLOUDY    77  75  94 CALM      29.94R                  
SHELBYVILLE    CLOUDY    75  70  83 SE7       29.97S                  
$$

TNZ017-018-042-046-047-260100-
NORTHEAST TENNESSEE
  
CITY           SKY/WX    TMP DP  RH WIND       PRES   REMARKS
TRI CITIES     CLOUDY    71  59  65 SE5       30.09R                  
ELIZABETHTON   CLOUDY    70  59  68 VRB5      30.10S                  
GREENEVILLE    MOCLDY    72  63  73 S3        30.08R                  
$$

TNZ012-013-036-069-073-074-260100-
CENTRAL EAST TENNESSEE
  
CITY           SKY/WX    TMP DP  RH WIND       PRES   REMARKS
KNOXVILLE      HVY RAIN  71  69  93 S6        30.03R VSB 3/4          
OAK RIDGE      CLOUDY    77  68  73 E3        30.03S                  
DOWNTOWN KNOXV CLOUDY    75  72  88 CALM      30.02S                  
GATLINBURG     CLOUDY    75  70  83 S5        30.02S                  
MORRISTOWN     MOCLDY    75  64  69 SE8       30.04S                  
JACKSBORO      CLOUDY    73  68  83 CALM      30.06F                  
$$

TNZ083-085-099-260100-
SOUTHEAST TENNESSEE
  
CITY           SKY/WX    TMP DP  RH WIND       PRES   REMARKS
CHATTANOOGA    CLOUDY    75  67  76 S5        30.02S                  
DAYTON         CLOUDY    75  70  83 SW5       30.00F                  
$$

SKY/WX REPORTED AS FAIR MEANS FEW OR NO CLOUDS BELOW
12 THOUSAND FEET.